OVERFALLS Weather Reports


Display with metric or nautical units.
time (UTC)temp
F
wind
direction
speed
MPH
gust
MPH
rain 1hr
in
rain 24hr
in
rain mn
in
humidity
%
barometer
mb
20260831134557 78 60 6.0 11.0 0.00 0.00 0.00 82 1020.4
20260831133056 77 44 6.0 12.0 0.00 0.00 0.00 84 1020.2
20260831131553 77 74 7.0 11.0 0.00 0.00 0.00 88 1020.1
20260831130059 77 92 5.0 9.0 0.00 0.00 0.00 91 1020.2
20260831124556 76 48 3.0 7.0 0.00 0.00 0.00 93 1020.0
20260831123054 76 248 2.0 4.0 0.00 0.00 0.00 95 1019.8
20260831121549 75 248 1.0 3.0 0.00 0.00 0.00 96 1019.8
20260831120131 75 0 1.0 3.0 0.00 0.00 0.00 96 1019.8
20260831114554 75 0 1.0 3.0 0.00 0.00 0.00 96 1019.7
20260831113054 75 248 1.0 2.0 0.00 0.00 0.00 96 1019.6
20260831111559 75 0 0.0 2.0 0.00 0.00 0.00 96 1019.6
20260831110055 74 0 0.0 1.0 0.00 0.00 0.00 96 1019.4
20260831104602 74 0 0.0 2.0 0.00 0.00 0.00 96 1019.3
20260831103057 74 248 1.0 3.0 0.00 0.00 0.00 96 1019.2
20260831101603 74 248 1.0 4.0 0.00 0.00 0.00 95 1019.0
20260831100106 73 0 0.0 2.0 0.00 0.00 0.00 95 1019.0
20260831094554 74 0 0.0 2.0 0.00 0.00 0.00 95 1018.8
20260831093055 74 0 0.0 2.0 0.00 0.00 0.00 95 1018.8
20260831091547 74 248 0.0 4.0 0.00 0.00 0.00 95 1018.7
20260831084556 74 248 3.0 9.0 0.00 0.00 0.00 94 1018.7
20260831083057 74 223 2.0 5.0 0.00 0.00 0.00 94 1018.6
20260831081556 74 223 2.0 5.0 0.00 0.00 0.00 94 1018.8
20260831080051 74 0 2.0 4.0 0.00 0.00 0.00 94 1018.9
20260831074549 75 223 2.0 5.0 0.00 0.00 0.00 94 1018.9
20260831073102 75 223 1.0 7.0 0.00 0.00 0.00 94 1019.0
20260831071556 75 223 2.0 5.0 0.00 0.00 0.00 94 1018.9
20260831070103 75 212 2.0 8.0 0.00 0.00 0.00 94 1019.1
20260831064547 75 226 3.0 6.0 0.00 0.00 0.00 94 1019.1
20260831063054 75 227 3.0 7.0 0.00 0.00 0.00 93 1019.2
20260831061600 75 215 2.0 7.0 0.00 0.00 0.00 93 1019.2
20260831060105 75 239 2.0 7.0 0.00 0.00 0.00 93 1019.3
20260831054551 75 225 3.0 7.0 0.00 0.00 0.00 93 1019.2
20260831053110 75 228 4.0 7.0 0.00 0.00 0.00 93 1019.3
20260831051604 75 236 4.0 9.0 0.00 0.00 0.00 92 1019.2
20260831050059 75 209 2.0 10.0 0.00 0.00 0.00 92 1019.3
20260831044553 75 236 4.0 10.0 0.00 0.00 0.00 92 1019.2
20260831043102 75 222 4.0 9.0 0.00 0.00 0.00 91 1019.3
20260831041555 75 208 5.0 12.0 0.00 0.00 0.00 91 1019.3
20260831040055 75 209 4.0 10.0 0.00 0.00 0.00 91 1019.5
20260831034559 75 261 3.0 10.0 0.00 0.00 0.00 91 1019.6
20260831033106 75 234 4.0 8.0 0.00 0.00 0.00 90 1019.6
20260831031548 75 219 4.0 9.0 0.00 0.00 0.00 90 1019.6
20260831030059 75 232 4.0 10.0 0.00 0.00 0.00 90 1019.7
20260831024551 76 221 4.0 8.0 0.00 0.00 0.00 89 1020.0
20260831023048 76 213 3.0 8.0 0.00 0.00 0.00 88 1020.1
20260831021554 76 207 5.0 8.0 0.00 0.00 0.00 88 1019.9
20260831020108 76 175 5.0 9.0 0.00 0.00 0.00 88 1019.9
20260831014553 76 205 3.0 9.0 0.00 0.00 0.00 87 1020.1
20260831013104 77 184 5.0 10.0 0.00 0.00 0.00 86 1020.1
20260831011553 77 250 4.0 9.0 0.00 0.00 0.00 86 1020.2
20260831010050 77 196 4.0 9.0 0.00 0.00 0.00 85 1020.0
20260831004625 77 180 4.0 8.0 0.00 0.00 0.00 85 1019.9
20260831003055 78 191 5.0 11.0 0.00 0.00 0.00 84 1019.9
20260831001552 78 182 4.0 9.0 0.00 0.00 0.00 84 1019.8
20260831000049 78 211 5.0 11.0 0.00 0.00 0.00 83 1019.8
20260830234556 79 172 6.0 13.0 0.00 0.00 0.00 82 1019.7
20260830233054 80 190 6.0 12.0 0.00 0.00 0.00 81 1019.6
20260830231552 81 167 5.0 14.0 0.00 0.00 0.00 80 1019.7
20260830230049 81 176 5.0 10.0 0.00 0.00 0.00 80 1019.6
20260830224553 82 188 3.0 10.0 0.00 0.00 0.00 80 1019.5
20260830223054 82 201 4.0 12.0 0.00 0.00 0.00 79 1019.5
20260830221550 82 153 4.0 14.0 0.00 0.00 0.00 78 1019.5
20260830214554 83 156 3.0 13.0 0.00 0.00 0.00 77 1019.2
20260830213056 84 188 5.0 10.0 0.00 0.00 0.00 76 1019.4
20260830211608 84 201 4.0 10.0 0.00 0.00 0.00 75 1019.3
20260830210056 86 164 5.0 11.0 0.00 0.00 0.00 69 1019.1
20260830204550 88 264 2.0 8.0 0.00 0.00 0.00 61 1019.1
20260830203100 87 221 4.0 10.0 0.00 0.00 0.00 62 1019.3
20260830201559 86 189 3.0 12.0 0.00 0.00 0.00 71 1019.4
20260830200054 86 200 4.0 11.0 0.00 0.00 0.00 67 1019.6
20260830194552 87 167 4.0 11.0 0.00 0.00 0.00 67 1019.6
20260830193057 87 163 3.0 12.0 0.00 0.00 0.00 68 1019.7
20260830191559 86 127 3.0 13.0 0.00 0.00 0.00 68 1019.9
20260830184554 86 257 4.0 8.0 0.00 0.00 0.00 67 1020.5
20260830183058 87 144 4.0 11.0 0.00 0.00 0.00 65 1020.6
20260830181554 88 196 2.0 12.0 0.00 0.00 0.00 59 1020.7
20260830180057 88 194 3.0 10.0 0.00 0.00 0.00 58 1020.9
20260830174547 88 225 3.0 10.0 0.00 0.00 0.00 58 1021.2
20260830173116 86 232 7.0 12.0 0.00 0.00 0.00 60 1021.4
20260830171602 86 206 5.0 10.0 0.00 0.00 0.00 60 1021.4
20260830170050 86 244 7.0 13.0 0.00 0.00 0.00 60 1021.8
20260830164555 84 208 8.0 15.0 0.00 0.00 0.00 61 1021.8
20260830163050 85 200 6.0 16.0 0.00 0.00 0.00 61 1021.9
20260830161606 84 232 6.0 12.0 0.00 0.00 0.00 63 1022.1
20260830160105 84 214 7.0 10.0 0.00 0.00 0.00 63 1022.3
20260830154551 85 220 1.0 8.0 0.00 0.00 0.00 65 1022.4
20260830153102 84 166 3.0 8.0 0.00 0.00 0.00 66 1022.4
20260830151605 82 263 5.0 10.0 0.00 0.00 0.00 68 1022.6
20260830150056 82 131 2.0 9.0 0.00 0.00 0.00 69 1022.4
20260830144557 82 219 3.0 10.0 0.00 0.00 0.00 69 1022.5
20260830143049 81 202 4.0 7.0 0.00 0.00 0.00 71 1022.8
20260830141554 81 211 2.0 8.0 0.00 0.00 0.00 72 1022.7